�N����,����,�~����,�C��,���x,�C��,����,���ϕ���,�ő�u�ԕ���,�ő厞����,���˗�,�I�_���x,�n�����x,�ő啗���N��,DTYPE
"21/07/30","00:10",0.0,26.1,82.2,996.3,329.7,1.3,2.0,330.3,0.00,22.9,26.8,"00:02:08",1
"21/07/30","00:20",0.0,26.1,82.3,996.3,333.5,1.1,1.9,327.2,0.00,22.9,26.9,"00:12:40",1
"21/07/30","00:30",0.0,26.0,82.6,996.0,338.0,1.2,2.7,344.6,0.00,22.8,26.7,"00:26:08",1
"21/07/30","00:40",0.0,26.0,82.9,996.0,327.8,1.3,2.6,336.9,0.00,22.9,26.7,"00:36:24",1
"21/07/30","00:50",0.0,26.0,83.1,996.3,314.8,1.2,2.5,345.1,0.00,22.9,26.4,"00:40:56",1
"21/07/30","01:00",0.0,25.9,83.3,996.0,330.9,1.3,2.6,332.4,0.00,22.9,26.7,"00:51:12",1
"21/07/30","01:10",0.0,25.9,83.5,996.0,336.9,1.0,2.1,323.4,0.00,22.9,26.6,"01:00:08",1
"21/07/30","01:20",0.0,25.8,83.7,995.8,340.0,1.2,2.4,349.8,0.00,22.9,26.6,"01:18:00",1
"21/07/30","01:30",0.0,25.8,84.0,996.0,339.4,1.2,2.1,339.4,0.00,22.9,26.5,"01:21:44",1
"21/07/30","01:40",0.0,25.7,84.2,996.0,323.9,0.6,1.3,342.2,0.00,22.9,26.6,"01:31:44",1
"21/07/30","01:50",0.0,25.6,84.4,995.8,266.6,0.5,1.0,254.1,0.00,22.8,26.7,"01:47:12",1
"21/07/30","02:00",0.0,25.6,84.6,996.3,287.1,0.7,1.2,318.3,0.00,22.9,26.4,"01:51:20",1
"21/07/30","02:10",0.0,25.6,84.6,995.8,331.8,1.3,2.5,349.8,0.00,22.9,26.5,"02:08:00",1
"21/07/30","02:20",0.0,25.7,84.6,995.8,335.6,1.5,2.8,325.6,0.00,22.9,26.4,"02:12:24",1
"21/07/30","02:30",0.0,25.6,84.7,996.0,336.8,1.2,1.9,346.7,0.00,22.9,26.2,"02:28:24",1
"21/07/30","02:40",0.0,25.5,84.9,996.0,336.9,1.0,1.8,341.1,0.00,22.8,26.5,"02:31:36",1
"21/07/30","02:50",0.0,25.6,85.0,996.0,330.1,1.0,1.6,344.7,0.00,22.9,26.5,"02:45:36",1
"21/07/30","03:00",0.0,25.6,85.1,995.8,288.7,0.8,1.9,334.2,0.00,22.9,26.6,"02:54:32",1
"21/07/30","03:10",0.0,25.5,85.2,996.0,275.8,0.6,1.1,256.1,0.00,22.9,26.2,"03:02:56",1
"21/07/30","03:20",0.0,25.5,85.3,996.0,295.4,0.6,1.0,336.3,0.00,22.9,26.3,"03:10:40",1
"21/07/30","03:30",0.0,25.4,85.4,996.3,299.2,0.6,1.2,341.5,0.00,22.8,26.3,"03:20:40",1
"21/07/30","03:40",0.0,25.4,85.5,995.8,274.2,0.7,1.3,255.2,0.00,22.8,26.3,"03:37:28",1
"21/07/30","03:50",0.0,25.3,85.6,995.8,309.2,0.7,1.2,338.4,0.00,22.8,26.5,"03:44:00",1
"21/07/30","04:00",0.0,25.3,85.8,996.3,315.6,0.8,1.4,341.1,0.00,22.8,26.1,"03:54:56",1
"21/07/30","04:10",0.0,25.3,85.8,996.0,290.7,0.5,0.9,278.9,0.00,22.8,26.1,"04:07:28",1
"21/07/30","04:20",0.0,25.2,86.0,996.0,324.9,0.5,1.0,334.9,0.00,22.7,26.2,"04:15:20",1
"21/07/30","04:30",0.0,25.3,86.0,996.0,327.4,1.2,1.8,345.7,0.00,22.8,26.3,"04:27:20",1
"21/07/30","04:40",0.0,25.2,85.9,996.3,331.1,1.0,2.0,339.7,0.00,22.7,26.2,"04:38:08",1
"21/07/30","04:50",0.0,25.3,85.8,996.3,328.9,1.1,2.2,329.0,0.00,22.8,26.2,"04:44:08",1
"21/07/30","05:00",0.0,25.2,85.7,996.3,321.4,1.0,2.2,326.0,0.00,22.7,26.2,"04:59:36",1
"21/07/30","05:10",0.0,25.2,85.6,996.5,331.1,1.3,2.7,343.6,0.00,22.7,26.2,"05:04:00",1
"21/07/30","05:20",0.0,25.1,85.5,996.7,334.5,1.0,1.9,329.1,0.00,22.5,26.1,"05:13:04",1
"21/07/30","05:30",0.0,25.1,85.4,996.5,280.4,0.3,1.1,259.8,0.00,22.5,25.8,"05:26:08",1
"21/07/30","05:40",0.0,25.1,85.3,996.7,316.5,0.5,0.9,324.0,0.00,22.5,26.0,"05:33:44",1
"21/07/30","05:50",0.0,25.0,85.3,996.7,296.4,0.5,0.8,330.4,0.00,22.4,26.0,"05:44:40",1
"21/07/30","06:00",0.0,25.0,85.3,996.7,291.8,0.6,1.3,323.7,0.00,22.4,26.2,"05:51:44",1
"21/07/30","06:10",0.0,25.1,85.3,996.7,321.1,1.1,2.2,342.3,0.00,22.5,26.0,"06:06:48",1
"21/07/30","06:20",0.0,25.3,85.0,996.7,329.8,1.0,2.0,346.7,0.01,22.6,25.9,"06:13:28",1
"21/07/30","06:30",0.0,25.4,84.5,997.2,335.0,1.3,2.1,342.7,0.01,22.6,26.1,"06:20:24",1
"21/07/30","06:40",0.0,25.7,84.0,997.2,305.2,0.8,1.7,308.8,0.02,22.8,26.0,"06:30:24",1
"21/07/30","06:50",0.0,25.8,83.6,997.0,315.9,1.0,1.6,340.4,0.02,22.9,26.1,"06:44:08",1
"21/07/30","07:00",0.0,26.2,83.3,997.0,302.7,0.7,1.3,319.6,0.05,23.2,25.9,"06:55:12",1
"21/07/30","07:10",0.0,26.2,82.3,997.0,314.4,1.0,1.8,315.7,0.06,23.0,26.0,"07:06:08",1
"21/07/30","07:20",0.0,26.8,81.1,997.0,301.0,0.7,1.6,332.6,0.09,23.3,25.8,"07:16:24",1
"21/07/30","07:30",0.0,27.5,78.7,997.2,346.9,0.5,1.2,353.4,0.10,23.5,26.0,"07:26:32",1
"21/07/30","07:40",0.0,28.0,76.3,997.0,17.3,0.7,1.4,332.4,0.12,23.5,26.1,"07:34:48",1
"21/07/30","07:50",0.0,28.6,73.0,996.7,359.8,0.8,1.9,352.2,0.14,23.3,26.1,"07:43:44",1
"21/07/30","08:00",0.0,28.6,71.4,996.0,343.8,0.8,2.0,351.4,0.10,23.0,26.1,"07:53:12",1
"21/07/30","08:10",0.0,28.9,71.7,996.0,279.3,0.8,2.9,347.0,0.19,23.3,26.0,"08:02:16",1
"21/07/30","08:20",0.0,29.5,69.3,997.0,215.3,0.8,2.2,353.1,0.24,23.3,26.2,"08:18:00",1
"21/07/30","08:30",0.0,30.2,67.2,997.0,30.2,0.6,1.8,341.3,0.27,23.5,26.3,"08:24:56",1
"21/07/30","08:40",0.0,30.7,64.9,997.4,0.0,0.8,2.1,339.9,0.29,23.4,26.2,"08:33:36",1
"21/07/30","08:50",0.0,30.9,64.3,997.7,356.7,0.8,2.5,332.8,0.32,23.4,26.3,"08:49:28",1
"21/07/30","09:00",0.0,31.2,64.2,997.7,47.1,0.7,2.9,348.9,0.34,23.7,26.5,"08:50:32",1
"21/07/30","09:10",0.0,31.6,61.3,997.7,71.3,1.0,2.2,1.1,0.36,23.3,26.4,"09:09:04",1
"21/07/30","09:20",0.0,31.7,60.5,997.9,10.3,0.7,2.1,341.7,0.38,23.2,26.5,"09:14:56",1
"21/07/30","09:30",0.0,31.7,60.6,997.9,196.9,0.7,2.2,201.6,0.34,23.2,26.6,"09:29:28",1
"21/07/30","09:40",0.0,32.0,60.7,998.2,159.9,1.2,2.4,118.3,0.43,23.5,26.6,"09:34:32",1
"21/07/30","09:50",0.0,32.3,59.0,998.4,170.5,0.8,1.9,134.1,0.40,23.3,26.7,"09:49:12",1
"21/07/30","10:00",0.0,31.2,61.8,998.4,153.2,1.0,2.8,133.2,0.26,23.0,26.8,"09:54:56",1
"21/07/30","10:10",0.0,32.3,58.9,998.6,125.6,0.8,2.6,13.5,0.50,23.3,26.8,"10:08:56",1
"21/07/30","10:20",0.0,33.2,59.0,998.6,125.7,1.2,3.3,143.0,0.52,24.1,26.9,"10:14:00",1
"21/07/30","10:30",0.0,32.7,57.2,998.9,352.8,1.2,2.6,358.1,0.44,23.2,27.0,"10:24:40",1
"21/07/30","10:40",0.0,33.0,57.2,998.4,254.4,0.8,3.6,214.6,0.49,23.4,27.1,"10:37:20",1
"21/07/30","10:50",0.0,33.6,56.5,998.6,130.0,1.2,3.2,195.1,0.57,23.8,27.2,"10:42:00",1
"21/07/30","11:00",0.0,33.4,56.4,998.6,183.7,2.1,4.0,222.9,0.59,23.6,27.5,"10:56:00",1
"21/07/30","11:10",0.0,33.7,56.4,998.4,191.7,1.3,4.0,201.6,0.54,23.9,27.4,"11:04:16",1
"21/07/30","11:20",0.0,34.2,54.2,998.4,196.7,1.1,3.1,213.7,0.61,23.7,27.9,"11:15:28",1
"21/07/30","11:30",0.0,33.3,56.3,998.6,65.6,0.8,3.2,337.4,0.22,23.5,27.8,"11:21:20",1
"21/07/30","11:40",0.0,33.9,56.7,997.9,161.3,0.8,2.6,238.0,0.44,24.1,27.9,"11:39:28",1
"21/07/30","11:50",0.0,34.5,55.0,997.9,164.2,1.2,2.6,229.5,0.59,24.2,27.9,"11:40:56",1
"21/07/30","12:00",0.0,34.9,53.1,998.2,193.2,1.3,3.9,224.7,0.61,24.0,28.2,"11:56:32",1
"21/07/30","12:10",0.0,34.4,52.9,997.7,200.3,2.1,4.4,217.8,0.64,23.4,28.2,"12:04:56",1
"21/07/30","12:20",0.0,35.4,52.0,997.7,149.4,1.1,2.7,125.7,0.62,24.1,28.0,"12:11:52",1
"21/07/30","12:30",0.0,35.5,49.2,997.7,182.2,1.7,4.2,216.8,0.62,23.3,28.5,"12:29:20",1
"21/07/30","12:40",0.0,35.0,51.9,997.7,267.0,1.6,4.0,348.3,0.62,23.7,28.7,"12:37:52",1
"21/07/30","12:50",0.0,35.1,50.2,997.4,206.2,2.1,4.2,234.8,0.61,23.2,28.9,"12:41:36",1
"21/07/30","13:00",0.0,35.1,48.8,997.4,200.2,1.7,3.5,236.8,0.48,22.8,28.8,"12:54:32",1
"21/07/30","13:10",0.0,35.9,47.5,997.2,214.3,1.5,3.3,187.1,0.62,23.0,29.0,"13:02:40",1
"21/07/30","13:20",0.0,35.3,47.1,997.4,228.5,1.5,4.3,232.1,0.45,22.3,29.1,"13:18:24",1
"21/07/30","13:30",0.0,35.6,48.0,997.2,219.9,2.0,3.9,217.5,0.54,22.9,29.1,"13:22:56",1
"21/07/30","13:40",0.0,36.2,46.9,997.2,194.4,1.0,2.5,159.1,0.54,23.1,29.2,"13:35:04",1
"21/07/30","13:50",0.0,36.2,47.0,997.2,186.0,1.6,4.1,223.6,0.57,23.1,29.4,"13:42:32",1
"21/07/30","14:00",0.0,36.2,46.1,996.7,165.1,1.5,3.3,186.5,0.55,22.8,29.5,"13:55:52",1
"21/07/30","14:10",0.0,36.9,46.6,997.2,329.0,0.8,2.4,354.4,0.54,23.6,29.6,"14:07:28",1
"21/07/30","14:20",0.0,36.1,45.6,997.0,331.3,1.6,3.3,347.9,0.49,22.5,29.4,"14:11:12",1
"21/07/30","14:30",0.0,35.8,44.6,996.5,293.5,1.1,2.8,341.5,0.41,21.9,29.6,"14:24:40",1
"21/07/30","14:40",0.0,36.3,42.9,996.7,318.4,1.5,2.9,342.8,0.51,21.7,29.7,"14:38:00",1
"21/07/30","14:50",0.0,36.6,42.5,996.7,302.4,1.2,3.3,347.3,0.49,21.8,29.6,"14:49:04",1
"21/07/30","15:00",0.0,36.7,41.7,996.5,334.5,1.2,2.6,356.3,0.47,21.6,29.7,"14:53:20",1
"21/07/30","15:10",0.0,36.9,42.5,996.5,161.8,1.3,2.8,344.1,0.46,22.1,29.6,"15:00:08",1
"21/07/30","15:20",0.0,37.2,41.2,996.7,254.0,1.0,3.1,186.9,0.47,21.9,29.9,"15:10:32",1
"21/07/30","15:30",0.0,37.7,43.9,996.5,55.5,0.8,2.5,70.8,0.40,23.4,29.5,"15:28:56",1
"21/07/30","15:40",0.0,36.7,46.5,996.5,105.9,1.5,3.9,101.1,0.39,23.4,29.7,"15:35:52",1
"21/07/30","15:50",0.0,35.8,48.6,996.0,97.2,1.1,3.4,99.3,0.16,23.3,29.7,"15:41:12",1
"21/07/30","16:00",0.0,35.8,48.9,996.0,106.5,1.1,3.1,155.3,0.26,23.4,29.8,"15:50:24",1
"21/07/30","16:10",0.0,36.2,49.2,996.0,122.4,1.0,2.4,133.1,0.30,23.9,29.8,"16:00:24",1
"21/07/30","16:20",0.0,35.8,49.2,995.8,97.2,0.8,2.0,118.4,0.18,23.5,29.9,"16:12:00",1
"21/07/30","16:30",0.0,36.0,47.7,995.6,55.2,1.0,2.4,12.9,0.23,23.2,29.9,"16:26:24",1
"21/07/30","16:40",0.0,36.0,47.1,995.8,14.1,1.1,2.0,312.3,0.24,23.0,29.9,"16:35:36",1
"21/07/30","16:50",0.0,35.8,48.1,995.6,33.6,0.7,1.8,33.9,0.13,23.2,29.7,"16:43:44",1
"21/07/30","17:00",0.0,35.1,49.5,995.1,16.8,0.6,1.3,8.9,0.11,23.0,29.7,"16:50:24",1
"21/07/30","17:10",0.0,35.0,49.4,995.1,339.0,0.5,1.2,4.7,0.08,22.9,29.8,"17:00:40",1
"21/07/30","17:20",0.0,34.4,52.7,994.8,26.7,0.7,1.9,46.8,0.04,23.4,30.0,"17:19:12",1
"21/07/30","17:30",0.0,33.3,55.7,994.6,21.5,1.2,2.7,27.7,0.02,23.3,29.9,"17:24:48",1
"21/07/30","17:40",0.0,32.2,59.4,994.4,355.2,1.8,4.1,352.9,0.01,23.3,29.7,"17:39:28",1
"21/07/30","17:50",0.0,31.9,61.3,994.4,8.2,1.6,3.7,37.1,0.00,23.6,29.9,"17:40:08",1
"21/07/30","18:00",0.0,31.4,62.5,993.7,13.0,1.3,2.8,343.6,0.00,23.4,29.8,"17:56:24",1
"21/07/30","18:10",0.0,31.5,63.6,993.9,354.7,1.0,2.7,352.4,0.00,23.8,29.7,"18:00:02",1
"21/07/30","18:20",0.2,30.7,64.8,994.1,243.2,1.8,5.7,228.7,0.00,23.4,29.7,"18:16:08",1
"21/07/30","18:30",0.0,29.2,71.1,993.4,185.6,2.7,4.7,155.2,0.00,23.5,29.7,"18:26:08",1
"21/07/30","18:40",0.4,28.7,75.4,993.0,187.6,1.7,4.2,224.9,0.01,24.0,29.5,"18:33:44",1
"21/07/30","18:50",0.2,28.3,77.5,994.1,39.4,0.8,2.2,58.2,0.02,24.0,29.5,"18:43:52",1
"21/07/30","19:00",7.2,27.6,79.0,994.4,98.0,0.8,1.9,51.9,0.00,23.7,28.6,"18:52:00",1
"21/07/30","19:10",1.4,26.2,81.5,994.6,301.4,1.1,2.7,315.7,0.00,22.8,28.9,"19:03:36",1
"21/07/30","19:20",0.2,25.7,83.0,994.6,294.2,0.5,2.0,1.7,0.00,22.6,28.7,"19:11:52",1
"21/07/30","19:30",0.0,26.1,84.7,995.1,316.9,0.8,1.6,348.9,0.00,23.4,28.8,"19:28:24",1
"21/07/30","19:40",0.0,26.0,85.6,995.3,49.8,0.6,1.3,10.9,0.00,23.4,29.0,"19:32:24",1
"21/07/30","19:50",0.0,25.8,86.8,996.0,16.2,0.8,1.6,318.9,0.00,23.5,28.7,"19:45:36",1
"21/07/30","20:00",0.0,25.7,87.4,995.8,93.9,0.6,1.3,233.9,0.00,23.5,28.6,"19:59:52",1
"21/07/30","20:10",0.0,25.7,88.1,996.0,230.0,0.5,1.0,240.7,0.00,23.6,28.7,"20:00:08",1
"21/07/30","20:20",0.0,25.8,88.4,996.3,344.6,0.3,1.0,349.4,0.00,23.8,28.4,"20:17:44",1
"21/07/30","20:30",0.0,25.8,88.9,996.3,333.1,0.6,1.6,339.0,0.00,23.9,28.6,"20:23:52",1
"21/07/30","20:40",0.0,25.8,89.4,996.7,357.9,0.7,1.3,354.2,0.00,24.0,28.3,"20:35:04",1
"21/07/30","20:50",0.0,25.7,89.8,996.5,2.5,0.8,1.4,354.6,0.00,23.9,28.6,"20:41:04",1
"21/07/30","21:00",0.0,25.6,90.2,996.7,346.1,0.8,1.4,339.7,0.00,23.9,28.5,"20:53:12",1
"21/07/30","21:10",0.0,25.3,90.6,996.5,345.2,0.7,1.4,320.8,0.00,23.7,28.3,"21:01:20",1
"21/07/30","21:20",0.0,25.1,90.8,996.7,312.1,0.3,1.1,305.8,0.00,23.5,28.5,"21:12:08",1
"21/07/30","21:30",0.0,25.1,91.0,996.5,284.8,0.1,1.0,330.1,0.00,23.6,28.3,"21:22:40",1
"21/07/30","21:40",0.0,24.7,91.2,996.5,287.2,0.6,1.0,340.1,0.00,23.2,28.3,"21:34:40",1
"21/07/30","21:50",0.0,24.8,91.5,996.7,1.3,0.7,1.6,11.4,0.00,23.4,28.3,"21:47:28",1
"21/07/30","22:00",0.0,24.3,91.7,996.7,346.2,1.1,1.9,349.9,0.00,22.9,28.2,"21:51:20",1
"21/07/30","22:10",0.0,24.2,91.8,996.5,326.4,0.7,1.2,314.4,0.00,22.8,28.2,"22:08:48",1
"21/07/30","22:20",0.0,24.2,92.0,997.0,307.3,1.0,1.6,332.7,0.00,22.9,28.2,"22:14:08",1
"21/07/30","22:30",0.0,24.3,92.0,997.0,332.2,0.8,2.0,10.4,0.00,23.0,27.9,"22:27:12",1
"21/07/30","22:40",0.0,24.1,92.1,997.2,335.2,1.2,2.2,339.3,0.00,22.8,28.1,"22:35:36",1
"21/07/30","22:50",0.0,24.0,92.3,996.5,347.7,1.1,1.9,335.4,0.00,22.7,27.9,"22:42:08",1
"21/07/30","23:00",0.0,23.9,92.4,997.2,332.7,1.3,2.2,332.0,0.00,22.6,27.9,"22:58:08",1
"21/07/30","23:10",0.0,24.1,92.4,997.0,328.7,1.0,1.9,331.1,0.00,22.8,27.9,"23:01:44",1
"21/07/30","23:20",0.0,23.9,92.5,996.7,21.5,0.7,1.3,353.1,0.00,22.6,27.9,"23:16:24",1
"21/07/30","23:30",0.0,24.0,92.6,997.0,331.9,0.8,1.3,341.8,0.00,22.8,27.7,"23:20:08",1
"21/07/30","23:40",0.0,24.0,92.6,996.7,327.7,1.0,1.8,341.6,0.00,22.8,27.7,"23:34:08",1
"21/07/30","23:50",0.0,24.3,92.6,996.7,334.5,1.2,2.1,339.9,0.00,23.1,27.7,"23:40:08",1
"21/07/30","24:00",0.0,24.3,92.4,996.7,343.3,1.0,1.6,350.9,0.00,23.0,27.7,"23:50:40",1
